Weather History for Fallon NAS, NV

Change the Weather History Date:

Tuesday, February 26, 2013

  Actual Average Record
Temperature  
Mean Temperature 30 °F -  
Max Temperature 44 °F 55 °F 71 °F (1986)
Min Temperature 16 °F 25 °F 5 °F (1962)
Degree Days  
Heating Degree Days 35    
Moisture  
Dew Point 5 °F    
Average Humidity 38    
Maximum Humidity 58    
Minimum Humidity 19    
Precipitation  
Precipitation 0.00 in - - ()
Sea Level Pressure  
Sea Level Pressure 30.16 in    
Wind  
Wind Speed 5 mph (NW)    
Max Wind Speed 9 mph    
Max Gust Speed -    
Visibility 10 miles    
Events      
Averages and records for this station are not official NWS values.
T = Trace of Precipitation, MM = Missing Value Source: NWS Daily Summary

Daily Weather History Graph

Daily Weather History Graph

Search for Another Location

Airport:

Trip Planner

Search our weather history database for the weather conditions in past years. The results will help you decide how hot, cold, wet, or windy it might be!

Date:

Astronomy

Feb. 26, 2013 Rise Set
Actual Time 6:31 AM PST 5:44 PM PST
Civil Twilight 6:04 AM PST 6:11 PM PST
Nautical Twilight 5:33 AM PST 6:42 PM PST
Astronomical Twilight 5:02 AM PST 7:13 PM PST
Moon 7:05 PM PST (2/26) 6:37 AM PST (2/26)
Length of Visible Light 12h 06m
Length of Day
11h 12m
Full, 99% of the Moon is Illuminated
Feb 26
Full
Mar 4
Last Quarter
Mar 11
New
Mar 19
First Quarter
Mar 27
Full

Hourly Weather History & Observations

Time (PST) Temp. Windchill Dew Point Humidity Pressure Visibility Wind Dir Wind Speed Gust Speed Precip Events Conditions
12:56 AM 21.9 °F 14.5 °F 1.9 °F 42% 30.09 in 10.0 mi NNE 5.8 mph - N/A   Clear
1:56 AM 19.0 °F 9.0 °F 1.0 °F 46% 30.09 in 10.0 mi NNE 8.1 mph - N/A   Clear
2:56 AM 18.0 °F - -0.0 °F 45% 30.12 in 10.0 mi Calm Calm - N/A   Clear
3:56 AM 16.0 °F 8.8 °F -0.0 °F 49% 30.12 in 10.0 mi SSW 4.6 mph - N/A   Clear
4:56 AM 19.0 °F 12.3 °F 1.9 °F 47% 30.15 in 10.0 mi WSW 4.6 mph - N/A   Clear
5:56 AM 17.1 °F 8.7 °F 3.0 °F 54% 30.17 in 10.0 mi West 5.8 mph - N/A   Clear
6:19 AM 19.4 °F 11.5 °F 6.8 °F 58% 30.29 in 10.0 mi West 5.8 mph - N/A   Partly Cloudy
6:56 AM 19.9 °F - 7.0 °F 57% 30.17 in 10.0 mi Calm Calm - N/A   Scattered Clouds
7:56 AM 28.0 °F - 10.0 °F 47% 30.19 in 10.0 mi Calm Calm - N/A   Scattered Clouds
8:56 AM 30.9 °F 27.5 °F 12.0 °F 46% 30.20 in 10.0 mi West 3.5 mph - N/A   Mostly Cloudy
9:56 AM 36.0 °F 31.1 °F 12.9 °F 39% 30.19 in 10.0 mi North 5.8 mph - N/A   Mostly Cloudy
10:56 AM 37.9 °F 32.7 °F 10.9 °F 33% 30.19 in 10.0 mi NNW 6.9 mph - N/A   Mostly Cloudy
11:56 AM 41.0 °F 35.2 °F 10.0 °F 28% 30.18 in 10.0 mi North 9.2 mph - N/A   Mostly Cloudy
12:56 PM 42.1 °F 37.7 °F 9.0 °F 26% 30.17 in 10.0 mi NNW 6.9 mph - N/A   Mostly Cloudy
1:56 PM 43.0 °F 40.3 °F 6.1 °F 22% 30.15 in 10.0 mi Variable 4.6 mph - N/A   Mostly Cloudy
2:56 PM 43.0 °F 39.5 °F 6.1 °F 22% 30.14 in 10.0 mi North 5.8 mph - N/A   Scattered Clouds
3:56 PM 43.0 °F 38.8 °F 5.0 °F 21% 30.15 in 10.0 mi NNW 6.9 mph - N/A   Scattered Clouds
4:56 PM 44.1 °F 40.8 °F 3.9 °F 19% 30.15 in 10.0 mi North 5.8 mph - N/A   Scattered Clouds
5:56 PM 36.0 °F 30.3 °F 1.9 °F 24% 30.15 in 10.0 mi ENE 6.9 mph - N/A   Mostly Cloudy
6:56 PM 32.0 °F 27.5 °F 1.9 °F 28% 30.17 in 10.0 mi East 4.6 mph - N/A   Partly Cloudy
7:56 PM 30.0 °F 23.2 °F 1.9 °F 30% 30.16 in 10.0 mi SSE 6.9 mph - N/A   Partly Cloudy
8:56 PM 27.0 °F 18.7 °F 3.0 °F 36% 30.16 in 10.0 mi SSE 8.1 mph - N/A   Partly Cloudy
9:56 PM 25.0 °F 18.1 °F 3.9 °F 41% 30.16 in 10.0 mi SSW 5.8 mph - N/A   Partly Cloudy
10:56 PM 26.1 °F 19.4 °F 6.1 °F 43% 30.17 in 10.0 mi South 5.8 mph - N/A   Clear
11:56 PM 27.0 °F 20.5 °F 8.1 °F 45% 30.16 in 10.0 mi SSE 5.8 mph - N/A   Clear